Location: Kamms Corner
(44.7255°N, 108.9326°W)
Time: 16:26:24
(UTC+00:00)

N. Korean satellite - Pass Details

Date: 29 January 2022
Orbit: 438 x 478 km, 97.3° (Epoch: 21 May)

Event Time Altitude Azimuth Distance (km) Brightness Sun altitude
Rises 12:10:57 0° 18° (NNE) 2,635 10.5 -26.2°
Reaches altitude 10° 12:13:07 10° 24° (NNE) 1,743 9.6 -25.8°
Maximum altitude 12:16:46 46° 99° (E) 695 7.7 -25.2°
Drops below altitude 10° 12:20:20 10° 173° (S) 1,713 9.4 -24.5°
Sets 12:22:27 0° 180° (S) 2,584 10.3 -24.1°
